Cleveland Burke, OH

7:28 PM EDT on March 29, 2017 (GMT -0400)
Burke Lakefront

Weather History for KBKL - January, 2015

Change the Weather History Date:

Monday, January 19, 2015

  Actual Average Record
Temperature  
Mean Temperature 32 °F -  
Max Temperature 35 °F 30 °F 53 °F (2006)
Min Temperature 30 °F 20 °F 1 °F (1997)
Degree Days  
Heating Degree Days 32    
Moisture  
Dew Point 28 °F    
Average Humidity 82    
Maximum Humidity 89    
Minimum Humidity 73    
Precipitation  
Precipitation 0.00 in - - ()
Sea Level Pressure  
Sea Level Pressure 29.97 in    
Wind  
Wind Speed 11 mph (NW)    
Max Wind Speed 17 mph    
Max Gust Speed -    
Visibility 9 miles    
Events Snow    
Averages and records for this station are not official NWS values.
T = Trace of Precipitation, MM = Missing Value Source: NWS Daily Summary

Daily Weather History Graph

Daily Weather History Graph

Search for Another Location

Airport or City:

Trip Planner

Search our weather history database for the weather conditions in past years. The results will help you decide how hot, cold, wet, or windy it might be!

Date:

Astronomy

Jan. 19, 2015 Rise Set
Actual Time 7:48 AM EST 5:26 PM EST
Civil Twilight 7:18 AM EST 5:56 PM EST
Nautical Twilight 6:44 AM EST 6:30 PM EST
Astronomical Twilight 6:11 AM EST 7:03 PM EST
Moon 6:39 AM EST (1/19) 4:53 PM EST (1/19)
Length of Visible Light 10h 37m
Length of Day
9h 37m
Waning Crescent, 1% of the Moon is Illuminated
Jan 19
Waning Crescent
Jan 20
New
Jan 26
First Quarter
Feb 3
Full
Feb 11
Last Quarter

Hourly Weather History & Observations

Time (EST) Temp. Windchill Dew Point Humidity Pressure Visibility Wind Dir Wind Speed Gust Speed Precip Events Conditions
12:23 AM 33.1 °F 22.6 °F 30.0 °F 89% 29.91 in 3.0 mi West 16.1 mph - 0.00 in Snow Light Snow
12:36 AM 33.1 °F 22.2 °F 30.0 °F 89% 29.91 in 4.0 mi West 17.3 mph - 0.00 in Snow Light Snow
12:51 AM 33.8 °F 23.9 °F 30.2 °F 87% 29.92 in 7.0 mi West 15.0 mph - 0.00 in   Overcast
12:53 AM 33.1 °F 22.6 °F 30.0 °F 89% 29.94 in 8.0 mi West 16.1 mph - 0.00 in   Overcast
1:53 AM 33.1 °F 24.9 °F 30.0 °F 89% 29.95 in 10.0 mi West 10.4 mph - 0.00 in   Overcast
2:53 AM 33.1 °F 23.4 °F 30.0 °F 89% 29.96 in 10.0 mi West 13.8 mph - N/A   Overcast
3:53 AM 33.1 °F 23.4 °F 28.9 °F 85% 29.96 in 10.0 mi West 13.8 mph - N/A   Overcast
4:53 AM 33.1 °F 24.9 °F 28.9 °F 85% 29.96 in 10.0 mi WSW 10.4 mph - N/A   Overcast
5:53 AM 34.0 °F 26.0 °F 28.0 °F 79% 29.97 in 10.0 mi WSW 10.4 mph - N/A   Overcast
6:21 AM 34.0 °F 26.0 °F 28.0 °F 79% 29.95 in 10.0 mi WSW 10.4 mph - N/A   Overcast
6:53 AM 34.0 °F 27.2 °F 28.0 °F 79% 29.98 in 10.0 mi SW 8.1 mph - N/A   Overcast
7:29 AM 34.0 °F 26.6 °F 27.0 °F 75% 29.97 in 10.0 mi SSW 9.2 mph - N/A   Overcast
7:53 AM 34.0 °F 27.2 °F 28.0 °F 79% 29.99 in 10.0 mi SW 8.1 mph - N/A   Overcast
8:53 AM 34.0 °F 26.0 °F 28.9 °F 82% 30.00 in 10.0 mi SW 10.4 mph - N/A   Overcast
9:53 AM 34.0 °F 26.6 °F 28.9 °F 82% 30.01 in 9.0 mi SW 9.2 mph - N/A   Overcast
10:53 AM 35.1 °F 26.9 °F 30.0 °F 82% 30.02 in 8.0 mi West 11.5 mph - N/A   Overcast
11:53 AM 34.0 °F 26.0 °F 30.0 °F 85% 30.01 in 10.0 mi West 10.4 mph - N/A   Overcast
12:03 PM 35.1 °F 27.4 °F 30.0 °F 82% 29.99 in 6.0 mi West 10.4 mph - N/A   Haze
12:53 PM 34.0 °F 26.0 °F 30.0 °F 85% 30.00 in 7.0 mi WNW 10.4 mph - N/A   Overcast
1:02 PM 33.1 °F 26.1 °F 30.0 °F 89% 29.98 in 7.0 mi NNW 8.1 mph - N/A   Overcast
1:33 PM 32.0 °F 25.6 °F 28.0 °F 85% 29.98 in 10.0 mi NNE 6.9 mph - N/A   Overcast
1:53 PM 33.1 °F 26.1 °F 28.0 °F 82% 29.99 in 10.0 mi NNE 8.1 mph - N/A   Overcast
2:53 PM 32.0 °F 25.6 °F 28.0 °F 85% 29.99 in 10.0 mi NE 6.9 mph - N/A   Overcast
3:22 PM 32.0 °F 26.4 °F 27.0 °F 82% 29.96 in 10.0 mi NE 5.8 mph - N/A   Overcast
3:53 PM 32.0 °F 26.4 °F 28.0 °F 85% 29.97 in 10.0 mi NE 5.8 mph - N/A   Mostly Cloudy
4:53 PM 32.0 °F 26.4 °F 26.1 °F 79% 29.98 in 10.0 mi NNE 5.8 mph - N/A   Overcast
5:53 PM 30.9 °F 25.2 °F 25.0 °F 79% 29.99 in 10.0 mi NE 5.8 mph - N/A   Overcast
6:04 PM 30.9 °F 24.3 °F 25.0 °F 79% 29.97 in 10.0 mi NE 6.9 mph - N/A   Overcast
6:53 PM 30.9 °F 24.3 °F 25.0 °F 79% 29.99 in 10.0 mi NE 6.9 mph - N/A   Overcast
7:53 PM 32.0 °F 26.4 °F 24.1 °F 73% 29.98 in 10.0 mi NE 5.8 mph - N/A   Overcast
8:02 PM 32.0 °F 26.4 °F 24.1 °F 73% 29.96 in 10.0 mi NE 5.8 mph - N/A   Overcast
8:53 PM 30.9 °F 25.2 °F 24.1 °F 76% 29.98 in 10.0 mi NE 5.8 mph - N/A   Overcast
9:53 PM 30.9 °F 25.2 °F 24.1 °F 76% 29.98 in 10.0 mi NE 5.8 mph - N/A   Overcast
10:53 PM 30.9 °F 22.8 °F 25.0 °F 79% 29.97 in 10.0 mi NE 9.2 mph - N/A   Overcast
11:53 PM 30.9 °F 27.5 °F 25.0 °F 79% 29.96 in 10.0 mi NE 3.5 mph - N/A   Overcast